When you browse on this site, cookies collect data to enhance your experience and personalize the content and advertising you see.
Visit our Privacy Policy to learn more. By continuing to use the site, you agree to this use of cookies and data.

Hourly Weather Matlock

Today, 3 July, Friday

Time Temperature Precipitation Wind Pressure Humidity
00:00 +10°C° 0 mm 3 mps 743 mmHg 90%
01:00 +10°C° 0 mm 3 mps 743 mmHg 91%
02:00 +10°C° 0 mm 3 mps 743 mmHg 92%
03:00 +10°C° 0 mm 4 mps 743 mmHg 93%
04:00 +10°C° 0 mm 4 mps 743 mmHg 91%
05:00 +10°C° 0 mm 5 mps 743 mmHg 89%
06:00 +10°C° 0 mm 5 mps 743 mmHg 87%
07:00 +10°C° 0 mm 6 mps 743 mmHg 87%
08:00 +11°C° 0 mm 7 mps 742 mmHg 86%
09:00 +11°C° 0 mm 7 mps 742 mmHg 85%
10:00 +11°C° 0.1 mm 8 mps 742 mmHg 85%
11:00 +12°C° 0.1 mm 8 mps 742 mmHg 85%
12:00 +12°C° 0.1 mm 8 mps 741 mmHg 85%
13:00 +13°C° 0 mm 8 mps 741 mmHg 85%
14:00 +13°C° 0 mm 8 mps 741 mmHg 84%
15:00 +15°C° 0 mm 8 mps 741 mmHg 84%
16:00 +13°C° 0.3 mm 8 mps 741 mmHg 86%
17:00 +13°C° 0.3 mm 8 mps 741 mmHg 89%
18:00 +14°C° 0.3 mm 7 mps 741 mmHg 91%
19:00 +14°C° 0.3 mm 7 mps 741 mmHg 92%
20:00 +14°C° 0.3 mm 6 mps 741 mmHg 93%
21:00 +14°C° 0.3 mm 6 mps 741 mmHg 94%
22:00 +14°C° 0.2 mm 6 mps 741 mmHg 94%
23:00 +14°C° 0.2 mm 5 mps 741 mmHg 94%

Tomorrow, 4 July, Saturday

Time Temperature Precipitation Wind Pressure Humidity
00:00 +15°C° 0.2 mm 5 mps 741 mmHg 95%
01:00 +15°C° 0.1 mm 5 mps 740 mmHg 95%
02:00 +15°C° 0.1 mm 5 mps 740 mmHg 95%
03:00 +15°C° 0.1 mm 5 mps 740 mmHg 95%
04:00 +15°C° 0.9 mm 5 mps 739 mmHg 95%
05:00 +15°C° 0.9 mm 6 mps 739 mmHg 95%
06:00 +15°C° 0.9 mm 6 mps 739 mmHg 95%
07:00 +16°C° 0.1 mm 6 mps 739 mmHg 93%
08:00 +17°C° 0.1 mm 7 mps 738 mmHg 91%
09:00 +17°C° 0.1 mm 7 mps 738 mmHg 90%
10:00 +17°C° 0.1 mm 7 mps 738 mmHg 89%
11:00 +18°C° 0.1 mm 8 mps 738 mmHg 88%
12:00 +18°C° 0.1 mm 8 mps 738 mmHg 87%
13:00 +18°C° 0.1 mm 8 mps 738 mmHg 85%
14:00 +18°C° 0.1 mm 8 mps 738 mmHg 83%
15:00 +18°C° 0.1 mm 8 mps 738 mmHg 82%
16:00 +17°C° 0 mm 7 mps 738 mmHg 83%
17:00 +17°C° 0 mm 6 mps 739 mmHg 84%
18:00 +16°C° 0 mm 6 mps 739 mmHg 85%
19:00 +16°C° 0 mm 5 mps 739 mmHg 88%
20:00 +15°C° 0 mm 5 mps 739 mmHg 90%
21:00 +15°C° 0 mm 4 mps 740 mmHg 92%
22:00 +15°C° 0 mm 5 mps 739 mmHg 92%
23:00 +15°C° 0 mm 5 mps 739 mmHg 92%

Day after tomorrow, 5 July, Sunday

Time Temperature Precipitation Wind Pressure Humidity
00:00 +15°C° 0 mm 5 mps 739 mmHg 92%
01:00 +14°C° 0 mm 6 mps 738 mmHg 91%
02:00 +14°C° 0 mm 7 mps 738 mmHg 89%
03:00 +13°C° 0 mm 8 mps 737 mmHg 88%
04:00 +15°C° 0.1 mm 9 mps 736 mmHg 87%
05:00 +16°C° 0.1 mm 9 mps 736 mmHg 87%
06:00 +16°C° 0.1 mm 10 mps 735 mmHg 86%
07:00 +16°C° 0.1 mm 10 mps 735 mmHg 84%
08:00 +14°C° 0.1 mm 11 mps 736 mmHg 82%
09:00 +14°C° 0.1 mm 11 mps 736 mmHg 79%
10:00 +14°C° 0 mm 11 mps 737 mmHg 73%
11:00 +14°C° 0 mm 10 mps 737 mmHg 67%
12:00 +16°C° 0 mm 10 mps 738 mmHg 61%
13:00 +16°C° 0 mm 10 mps 738 mmHg 62%
14:00 +15°C° 0 mm 9 mps 738 mmHg 64%
15:00 +15°C° 0 mm 9 mps 738 mmHg 65%
16:00 +15°C° 0.1 mm 8 mps 738 mmHg 67%
17:00 +13°C° 0.1 mm 8 mps 739 mmHg 69%
18:00 +13°C° 0.1 mm 8 mps 739 mmHg 72%
19:00 +12°C° 0 mm 7 mps 739 mmHg 72%
20:00 +11°C° 0 mm 7 mps 739 mmHg 73%
21:00 +10°C° 0 mm 7 mps 739 mmHg 74%
22:00 +10°C° 0 mm 7 mps 739 mmHg 74%
23:00 +10°C° 0 mm 8 mps 739 mmHg 75%

6 July, Monday

Time Temperature Precipitation Wind Pressure Humidity
00:00 +9°C° 0 mm 8 mps 739 mmHg 75%
01:00 +9°C° 0 mm 8 mps 739 mmHg 76%
02:00 +10°C° 0 mm 9 mps 739 mmHg 77%
03:00 +10°C° 0 mm 9 mps 739 mmHg 78%
04:00 +10°C° 0 mm 9 mps 740 mmHg 79%
05:00 +10°C° 0 mm 8 mps 741 mmHg 80%
06:00 +10°C° 0 mm 8 mps 741 mmHg 80%
07:00 +11°C° 0.1 mm 8 mps 742 mmHg 77%
08:00 +12°C° 0.1 mm 8 mps 743 mmHg 73%
09:00 +13°C° 0.1 mm 8 mps 744 mmHg 70%
10:00 +13°C° 0.1 mm 8 mps 745 mmHg 69%
11:00 +15°C° 0.1 mm 7 mps 746 mmHg 68%
12:00 +15°C° 0.1 mm 7 mps 747 mmHg 66%
13:00 +16°C° 0.1 mm 7 mps 748 mmHg 64%
14:00 +16°C° 0.1 mm 7 mps 748 mmHg 62%
15:00 +16°C° 0.1 mm 7 mps 749 mmHg 60%
16:00 +15°C° 0 mm 6 mps 749 mmHg 62%
17:00 +15°C° 0 mm 6 mps 750 mmHg 65%
18:00 +14°C° 0 mm 6 mps 750 mmHg 67%
19:00 +13°C° 0 mm 5 mps 750 mmHg 69%
20:00 +10°C° 0 mm 5 mps 751 mmHg 71%
21:00 +10°C° 0 mm 4 mps 751 mmHg 74%
22:00 +8°C° 0 mm 4 mps 751 mmHg 76%
23:00 +8°C° 0 mm 4 mps 751 mmHg 78%

7 July, Tuesday

Time Temperature Precipitation Wind Pressure Humidity
00:00 +8°C° 0 mm 3 mps 751 mmHg 80%
01:00 +8°C° 0 mm 3 mps 751 mmHg 83%
02:00 +8°C° 0 mm 3 mps 751 mmHg 86%
03:00 +7°C° 0 mm 3 mps 751 mmHg 89%
04:00 +8°C° 0 mm 3 mps 751 mmHg 87%
05:00 +9°C° 0 mm 3 mps 751 mmHg 85%
06:00 +10°C° 0 mm 3 mps 751 mmHg 83%
07:00 +12°C° 0 mm 4 mps 751 mmHg 78%
08:00 +13°C° 0 mm 4 mps 752 mmHg 74%
09:00 +14°C° 0 mm 4 mps 752 mmHg 70%
10:00 +15°C° 0 mm 4 mps 752 mmHg 67%
11:00 +17°C° 0 mm 4 mps 752 mmHg 64%
12:00 +18°C° 0 mm 4 mps 751 mmHg 61%
13:00 +18°C° 0 mm 4 mps 751 mmHg 60%
14:00 +18°C° 0 mm 4 mps 751 mmHg 60%
15:00 +19°C° 0 mm 4 mps 751 mmHg 59%
16:00 +18°C° 0 mm 4 mps 751 mmHg 61%
17:00 +18°C° 0 mm 3 mps 751 mmHg 63%
18:00 +17°C° 0 mm 3 mps 750 mmHg 65%
19:00 +16°C° 0 mm 3 mps 751 mmHg 68%
20:00 +14°C° 0 mm 2 mps 751 mmHg 71%
21:00 +13°C° 0 mm 1 mps 751 mmHg 74%
22:00 +12°C° 0 mm 1 mps 750 mmHg 72%
23:00 +12°C° 0 mm 1 mps 750 mmHg 71%

8 July, Wednesday

Time Temperature Precipitation Wind Pressure Humidity
00:00 +11°C° 0 mm 1 mps 750 mmHg 69%
01:00 +11°C° 0 mm 1 mps 750 mmHg 72%
02:00 +11°C° 0 mm 1 mps 750 mmHg 74%
03:00 +11°C° 0 mm 1 mps 749 mmHg 76%
04:00 +12°C° 0 mm 2 mps 749 mmHg 76%
05:00 +12°C° 0 mm 2 mps 749 mmHg 77%
06:00 +12°C° 0 mm 3 mps 749 mmHg 77%
07:00 +12°C° 0 mm 3 mps 749 mmHg 74%
08:00 +13°C° 0 mm 4 mps 748 mmHg 71%
09:00 +14°C° 0 mm 4 mps 748 mmHg 69%
10:00 +15°C° 0 mm 4 mps 748 mmHg 67%
11:00 +16°C° 0 mm 5 mps 748 mmHg 65%
12:00 +17°C° 0 mm 5 mps 748 mmHg 63%
13:00 +17°C° 0 mm 5 mps 747 mmHg 63%
14:00 +19°C° 0 mm 5 mps 747 mmHg 63%
15:00 +20°C° 0 mm 6 mps 747 mmHg 63%
16:00 +19°C° 0 mm 5 mps 746 mmHg 64%
17:00 +19°C° 0 mm 5 mps 746 mmHg 66%
18:00 +18°C° 0 mm 4 mps 746 mmHg 67%
19:00 +17°C° 0 mm 4 mps 746 mmHg 68%
20:00 +15°C° 0 mm 4 mps 746 mmHg 70%
21:00 +13°C° 0 mm 4 mps 746 mmHg 71%
22:00 +13°C° 0 mm 4 mps 745 mmHg 73%
23:00 +13°C° 0 mm 4 mps 745 mmHg 75%
Show more